Find Local Weather

World > North America > United States > Maryland

Betterton, Maryland Regional Weather

Lat: 39.37N, Lon: 76.06W
Wx Zone: MDZ012
Warning FLW WEATHER ALERT - (More Info. Click Here) Warning
Feedback
Expires:201809251900;;197356
ASUS41 KPHI 251813
RWRPHI

REGIONAL WEATHER ROUNDUP
NATIONAL WEATHER SERVICE MOUNT HOLLY NJ
200 PM EDT TUE SEP 25 2018

NOTE:  "FAIR" INDICATES FEW OR NO CLOUDS BELOW 12,000 FEET WITH NO
SIGNIFICANT WEATHER AND/OR OBSTRUCTIONS TO VISIBILITY.

 * = STATION DOES NOT REPORT PRECIPITATION (E.G. RAIN, SNOW, ETC.) 
        OR FOG.


DEZALL-MDZ008-012-015-019-020-251900-
DELAWARE AND EASTERN MARYLAND
  
CITY           SKY/WX    TMP DP  RH WIND       PRES   REMARKS
WILMINGTON     LGT RAIN  76  73  91 S14       30.20F                  
6HR MIN TEMP:  67; 6HR MAX TEMP:  78; 6HR PCP: TRACE;                

DOVER          LGT RAIN  79  73  83 E10       30.19F                  
GEORGETOWN     FAIR      86  74  67 S12G24    30.20F HX  94           
6HR MIN TEMP:  73; 6HR MAX TEMP:  86;                                

EASTON         MOSUNNY   86  68  54 SW14G21   30.23F                  
PATUXENT       FAIR      83  73  72 SE12      30.18                   
OCEAN CITY     PTSUNNY   79  74  84 SE8       30.22F                  
WALLOPS ISLAND PTSUNNY   84  74  71 SE12      30.21F HX  91           
SALISBURY      PTSUNNY   84  74  71 S12G21    30.20F HX  91           

$$

SKY/WX - Weather  TMP - Temperature  DP - Dew Point  RH - Relative Humidity
WIND - Wind Direction/Speed PRES - Barometric Pressure